TimeEDT,TemperatureF,Dew PointF,Humidity,Sea Level PressureIn,VisibilityMPH,Wind Direction,Wind SpeedMPH,Gust SpeedMPH,PrecipitationIn,Events,Conditions,WindDirDegrees,DateUTC
12:54 AM,72.0,71.1,97,30.07,6.0,Calm,Calm,-,N/A,,Clear,0,2013-09-10 04:54:00
1:54 AM,71.1,71.1,100,30.08,6.0,Calm,Calm,-,N/A,,Clear,0,2013-09-10 05:54:00
2:54 AM,69.1,69.1,100,30.09,6.0,Calm,Calm,-,N/A,,Clear,0,2013-09-10 06:54:00
3:54 AM,71.1,68.0,90,30.09,9.0,Calm,Calm,-,N/A,,Clear,0,2013-09-10 07:54:00
4:54 AM,71.1,68.0,90,30.10,10.0,Calm,Calm,-,N/A,,Partly Cloudy,0,2013-09-10 08:54:00
5:54 AM,69.1,69.1,100,30.12,6.0,Calm,Calm,-,N/A,,Scattered Clouds,0,2013-09-10 09:54:00
6:54 AM,68.0,68.0,100,30.14,6.0,Calm,Calm,-,N/A,,Mostly Cloudy,0,2013-09-10 10:54:00
7:54 AM,69.1,69.1,100,30.16,7.0,Calm,Calm,-,N/A,,Mostly Cloudy,0,2013-09-10 11:54:00
8:54 AM,71.1,70.0,96,30.18,7.0,Calm,Calm,-,N/A,,Scattered Clouds,0,2013-09-10 12:54:00
9:54 AM,79.0,71.1,77,30.18,9.0,WSW,3.5,-,N/A,,Partly Cloudy,250,2013-09-10 13:54:00
10:54 AM,82.0,69.1,65,30.18,9.0,WSW,11.5,-,0.00,Rain,Light Rain,240,2013-09-10 14:54:00
11:54 AM,84.9,70.0,61,30.17,10.0,SW,9.2,-,N/A,,Scattered Clouds,220,2013-09-10 15:54:00
12:54 PM,87.1,69.1,55,30.17,10.0,WSW,6.9,-,N/A,,Scattered Clouds,240,2013-09-10 16:54:00
1:54 PM,88.0,70.0,55,30.16,10.0,South,5.8,-,N/A,,Scattered Clouds,180,2013-09-10 17:54:00
2:54 PM,88.0,70.0,55,30.14,10.0,SSW,9.2,-,N/A,,Scattered Clouds,200,2013-09-10 18:54:00
3:54 PM,88.0,70.0,55,30.12,10.0,SW,6.9,-,N/A,,Scattered Clouds,220,2013-09-10 19:54:00
4:54 PM,90.0,69.1,50,30.11,10.0,Variable,4.6,-,N/A,,Partly Cloudy,0,2013-09-10 20:54:00
5:54 PM,88.0,70.0,55,30.10,10.0,WSW,4.6,-,N/A,,Partly Cloudy,240,2013-09-10 21:54:00
6:54 PM,86.0,70.0,59,30.10,10.0,Calm,Calm,-,N/A,,Clear,0,2013-09-10 22:54:00
7:54 PM,80.1,73.9,81,30.12,10.0,Calm,Calm,-,N/A,,Clear,0,2013-09-10 23:54:00
8:54 PM,78.1,73.9,87,30.14,10.0,Calm,Calm,-,N/A,,Clear,0,2013-09-11 00:54:00
9:54 PM,75.9,73.9,94,30.15,7.0,Calm,Calm,-,N/A,,Clear,0,2013-09-11 01:54:00
10:54 PM,75.0,73.0,94,30.16,7.0,Calm,Calm,-,N/A,,Clear,0,2013-09-11 02:54:00
11:54 PM,73.9,73.0,97,30.16,7.0,Calm,Calm,-,N/A,,Clear,0,2013-09-11 03:54:00